WP3OF-5 Weather Reports


time (UTC)temp
C
wind
direction
speed
KPH
gust
KPH
rain 1hr
cm
rain 24hr
cm
rain mn
cm
humidity
%
barometer
mb
20260505094706 19 160 0.0 0.0 0.00 0.00 0.00 98 1016.5
20260505094203 19 160 0.0 0.0 0.00 0.00 0.00 98 1016.3
20260505093659 19 160 0.0 0.0 0.00 0.00 0.00 98 1016.4
20260505093156 19 160 0.0 0.0 0.00 0.00 0.00 97 1016.3
20260505092653 19 160 0.0 0.0 0.00 0.00 0.00 97 1016.2
20260505092152 19 160 0.0 1.6 0.00 0.00 0.00 98 1016.0
20260505091649 19 160 0.0 0.0 0.00 0.00 0.00 97 1016.0
20260505091147 19 160 0.0 1.6 0.00 0.00 0.00 97 1016.1
20260505090644 19 160 0.0 0.0 0.00 0.00 0.00 97 1015.9
20260505090142 19 160 0.0 0.0 0.00 0.00 0.00 97 1016.1
20260505085639 19 160 0.0 1.6 0.00 0.00 0.00 97 1016.0
20260505085137 19 160 0.0 0.0 0.00 0.00 0.00 97 1016.1
20260505084635 19 160 0.0 1.6 0.00 0.00 0.00 97 1016.1
20260505084133 19 160 0.0 0.0 0.00 0.00 0.00 97 1016.2
20260505083630 19 160 0.0 0.0 0.00 0.00 0.00 97 1016.2
20260505083126 19 160 0.0 1.6 0.00 0.00 0.00 97 1016.0
20260505082622 19 161 0.0 0.0 0.00 0.00 0.00 97 1015.8
20260505082120 19 161 0.0 0.0 0.00 0.00 0.00 97 1016.1
20260505081615 19 161 0.0 0.0 0.00 0.00 0.00 97 1016.0
20260505081114 19 161 0.0 0.0 0.00 0.00 0.00 97 1016.4
20260505080609 19 161 0.0 0.0 0.00 0.00 0.00 97 1016.2
20260505080106 19 161 0.0 0.0 0.00 0.00 0.00 97 1016.1
20260505075602 19 161 0.0 0.0 0.00 0.00 0.00 97 1016.0
20260505075059 19 161 0.0 0.0 0.00 0.00 0.00 97 1016.2
20260505074555 19 161 0.0 0.0 0.00 0.00 0.00 97 1016.3
20260505074053 19 161 0.0 0.0 0.00 0.00 0.00 97 1016.0
20260505073550 20 161 0.0 0.0 0.00 0.00 0.00 97 1016.1
20260505073050 19 161 0.0 0.0 0.00 0.00 0.00 97 1015.8
20260505072549 19 161 0.0 0.0 0.00 0.00 0.00 97 1016.0
20260505072046 20 161 0.0 0.0 0.00 0.00 0.00 97 1015.9
20260505071541 20 161 0.0 0.0 0.00 0.00 0.00 97 1016.1
20260505071040 20 161 0.0 0.0 0.00 0.00 0.00 97 1015.7
20260505070537 20 161 0.0 0.0 0.00 0.00 0.00 97 1016.0
20260505070033 19 161 0.0 0.0 0.00 0.00 0.00 97 1016.1
20260505065529 20 161 0.0 0.0 0.00 0.00 0.00 96 1016.1
20260505065026 20 161 0.0 0.0 0.00 0.00 0.00 96 1016.1
20260505064522 20 161 0.0 0.0 0.00 0.00 0.00 97 1016.1
20260505064021 20 161 0.0 0.0 0.00 0.00 0.00 97 1016.1
20260505063518 20 161 0.0 0.0 0.00 0.00 0.00 97 1016.1
20260505063014 20 161 0.0 0.0 0.00 0.00 0.00 97 1016.1
20260505062511 20 161 0.0 0.0 0.00 0.00 0.00 96 1016.3
20260505062008 20 161 0.0 0.0 0.00 0.00 0.00 96 1016.5
20260505061505 20 161 0.0 0.0 0.00 0.00 0.00 96 1016.2
20260505061003 20 161 0.0 0.0 0.00 0.00 0.00 96 1016.4
20260505060500 20 161 0.0 0.0 0.00 0.00 0.00 96 1016.5
20260505055956 20 161 0.0 0.0 0.00 0.00 0.00 96 1016.4
20260505055452 20 161 0.0 0.0 0.00 0.00 0.00 96 1016.3
20260505054949 20 161 0.0 0.0 0.00 0.00 0.00 96 1016.5
20260505054447 20 161 0.0 0.0 0.00 0.00 0.00 96 1016.5
20260505053944 20 161 0.0 0.0 0.00 0.00 0.00 96 1016.6
20260505053441 20 161 0.0 0.0 0.00 0.00 0.00 96 1016.7
20260505052938 20 161 0.0 0.0 0.00 0.00 0.00 96 1017.0
20260505052435 20 161 0.0 0.0 0.00 0.00 0.00 96 1016.8
20260505051932 20 161 0.0 0.0 0.00 0.00 0.00 96 1017.0
20260505051429 20 161 0.0 0.0 0.00 0.00 0.00 96 1017.0
20260505050927 20 161 0.0 0.0 0.00 0.00 0.00 96 1017.1
20260505050425 20 161 0.0 0.0 0.00 0.00 0.00 96 1017.1
20260505041353 21 167 0.0 0.0 0.00 0.00 0.00 95 1017.3
20260505040850 21 167 0.0 0.0 0.00 0.00 0.00 95 1017.3
20260505040348 21 167 0.0 0.0 0.00 0.00 0.00 95 1017.3
20260505035844 21 167 0.0 0.0 0.00 0.00 0.00 95 1017.3
20260505035340 21 167 0.0 0.0 0.00 0.00 0.00 95 1017.4
20260505034837 21 167 0.0 1.6 0.00 0.00 0.00 95 1017.5
20260505034334 21 167 0.0 0.0 0.00 0.00 0.00 95 1017.7
20260505033831 21 167 0.0 0.0 0.00 0.00 0.00 94 1017.9
20260505033328 21 168 0.0 0.0 0.00 0.00 0.00 94 1017.7
20260505032826 21 167 0.0 0.0 0.00 0.00 0.00 94 1017.6
20260505032322 21 167 0.0 0.0 0.00 0.00 0.00 94 1017.9
20260505031819 21 168 0.0 1.6 0.00 0.00 0.00 94 1017.7
20260505031316 21 168 0.0 0.0 0.00 0.00 0.00 94 1017.7
20260505030813 21 168 0.0 0.0 0.00 0.00 0.00 94 1017.9
20260505030310 21 168 0.0 0.0 0.00 0.00 0.00 94 1018.0
20260505025804 21 168 1.6 1.6 0.00 0.00 0.00 94 1017.8
20260505025304 21 166 1.6 3.2 0.00 0.00 0.00 94 1017.8
20260505024801 21 155 0.0 0.0 0.00 0.00 0.00 94 1017.6
20260505024258 21 155 0.0 0.0 0.00 0.00 0.00 94 1017.8
20260505023755 21 155 0.0 1.6 0.00 0.00 0.00 93 1017.6
20260505023252 21 152 0.0 1.6 0.00 0.00 0.00 93 1017.9
20260505022749 21 156 0.0 1.6 0.00 0.00 0.00 93 1017.7
20260505022246 22 156 0.0 3.2 0.00 0.00 0.00 93 1017.6
20260505021742 22 156 0.0 0.0 0.00 0.00 0.00 93 1017.4
20260505021240 22 156 0.0 0.0 0.00 0.00 0.00 93 1017.5
20260505020736 22 156 0.0 4.8 0.00 0.00 0.00 93 1017.4
20260505020231 22 169 0.0 1.6 0.00 0.00 0.00 93 1017.4
20260505015728 22 160 0.0 0.0 0.00 0.00 0.00 93 1017.4
20260505015225 22 160 0.0 0.0 0.00 0.00 0.00 93 1017.2
20260505014723 22 160 1.6 3.2 0.00 0.00 0.00 93 1017.4
20260505014220 22 160 0.0 0.0 0.00 0.00 0.00 92 1017.5
20260505013716 22 153 3.2 4.8 0.00 0.00 0.00 92 1017.5
20260505013213 22 162 0.0 1.6 0.00 0.00 0.00 92 1017.2
20260505012712 22 160 0.0 1.6 0.00 0.00 0.00 92 1017.2
20260505012209 22 160 0.0 1.6 0.00 0.00 0.00 92 1017.0
20260505011704 22 159 0.0 0.0 0.00 0.00 0.00 91 1017.2
20260505011202 22 157 0.0 4.8 0.00 0.00 0.00 91 1016.9
20260505010657 22 158 0.0 1.6 0.00 0.00 0.00 91 1017.0
20260505010154 22 157 0.0 0.0 0.00 0.00 0.00 91 1017.0
20260505005650 22 157 0.0 0.0 0.00 0.00 0.00 91 1016.9
20260505005147 22 157 1.6 1.6 0.00 0.00 0.00 90 1016.6
20260505004644 23 167 1.6 1.6 0.00 0.00 0.00 90 1016.9
20260505004140 23 167 0.0 0.0 0.00 0.00 0.00 90 1016.6
20260505003638 23 167 0.0 0.0 0.00 0.00 0.00 89 1016.6
20260505003135 23 167 0.0 0.0 0.00 0.00 0.00 88 1016.6
20260505002631 23 167 0.0 0.0 0.00 0.00 0.00 88 1016.8
20260505002130 23 167 0.0 3.2 0.00 0.00 0.00 87 1016.7
20260505001626 23 192 0.0 0.0 0.00 0.00 0.00 86 1016.6
20260505001124 24 192 0.0 0.0 0.00 0.00 0.00 86 1016.2
20260505000621 24 192 0.0 0.0 0.00 0.00 0.00 85 1016.3
20260505000119 24 192 0.0 0.0 0.00 0.00 0.00 83 1016.5
20260504235615 24 192 0.0 0.0 0.00 0.00 0.00 83 1016.4
20260504235112 25 192 0.0 0.0 0.00 0.00 0.00 82 1016.2
20260504234609 25 192 0.0 0.0 0.00 0.00 0.00 82 1016.2
20260504234106 25 192 0.0 0.0 0.00 0.00 0.00 81 1016.4
20260504233601 25 192 0.0 0.0 0.00 0.00 0.00 81 1016.3
20260504233058 25 193 0.0 0.0 0.00 0.00 0.00 80 1016.1
20260504232555 25 193 0.0 0.0 0.00 0.00 0.00 79 1016.4
20260504232053 25 193 0.0 0.0 0.00 0.00 0.00 78 1015.9
20260504231549 26 193 0.0 0.0 0.00 0.00 0.00 78 1016.1
20260504231045 26 193 0.0 0.0 0.00 0.00 0.00 77 1016.2
20260504230541 26 192 0.0 0.0 0.00 0.00 0.00 75 1016.0
20260504230041 26 193 0.0 0.0 0.00 0.00 0.00 72 1016.1
20260504225537 27 197 1.6 4.8 0.00 0.00 0.00 71 1015.9
20260504225034 27 225 3.2 4.8 0.00 0.00 0.00 71 1015.7
20260504224531 27 243 1.6 3.2 0.00 0.00 0.00 71 1015.8
20260504224028 27 272 1.6 6.4 0.00 0.00 0.00 69 1015.6
20260504223525 27 248 4.8 4.8 0.00 0.00 0.00 70 1015.5
20260504223021 27 246 1.6 6.4 0.00 0.00 0.00 69 1015.6
20260504222518 27 193 1.6 3.2 0.00 0.00 0.00 69 1015.5
20260504222015 27 167 3.2 6.4 0.00 0.00 0.00 68 1015.5
20260504221512 28 221 4.8 4.8 0.00 0.00 0.00 67 1015.7
20260504221009 28 178 4.8 4.8 0.00 0.00 0.00 66 1015.4
20260504220505 28 149 3.2 6.4 0.00 0.00 0.00 65 1015.4
20260504220002 28 222 3.2 11.3 0.00 0.00 0.00 64 1015.4
20260504215459 29 193 3.2 4.8 0.00 0.00 0.00 63 1015.2
20260504214956 29 195 1.6 1.6 0.00 0.00 0.00 61 1015.0
20260504214452 29 139 1.6 6.4 0.00 0.00 0.00 61 1015.0
20260504213949 29 256 8.0 12.9 0.00 0.00 0.00 60 1014.8
20260504213444 29 196 8.0 14.5 0.00 0.00 0.00 59 1015.1
20260504212943 30 227 3.2 9.7 0.00 0.00 0.00 57 1014.9
20260504212438 30 174 9.7 11.3 0.00 0.00 0.00 56 1014.8
20260504211936 30 193 3.2 9.7 0.00 0.00 0.00 56 1015.0
20260504211432 30 244 6.4 20.9 0.00 0.00 0.00 58 1014.9
20260504210930 30 177 8.0 11.3 0.00 0.00 0.00 56 1015.1
20260504210426 30 212 6.4 9.7 0.00 0.00 0.00 55 1014.8
20260504205923 30 130 3.2 12.9 0.00 0.00 0.00 55 1014.9
20260504205421 30 249 9.7 11.3 0.00 0.00 0.00 54 1014.9
20260504204919 30 225 4.8 11.3 0.00 0.00 0.00 53 1015.0
20260504204417 30 164 1.6 9.7 0.00 0.00 0.00 55 1014.8
20260504203916 30 135 4.8 11.3 0.00 0.00 0.00 55 1014.7
20260504203413 30 179 1.6 6.4 0.00 0.00 0.00 54 1014.9
20260504202909 31 260 6.4 9.7 0.00 0.00 0.00 53 1014.9
20260504202406 30 231 4.8 9.7 0.00 0.00 0.00 52 1014.7
20260504201902 30 239 6.4 16.1 0.00 0.00 0.00 55 1014.9
20260504201400 30 247 9.7 14.5 0.00 0.00 0.00 53 1014.8
20260504200857 31 164 9.7 20.9 0.00 0.00 0.00 52 1014.6
20260504200354 31 226 9.7 14.5 0.00 0.00 0.00 52 1014.7
20260504195851 31 183 9.7 12.9 0.00 0.00 0.00 51 1014.7
20260504195346 31 182 6.4 17.7 0.00 0.00 0.00 51 1014.7
20260504194843 31 112 8.0 11.3 0.00 0.00 0.00 51 1014.8
20260504194339 31 192 9.7 12.9 0.00 0.00 0.00 51 1014.8
20260504193835 31 128 3.2 9.7 0.00 0.00 0.00 49 1014.9
20260504193332 31 236 9.7 20.9 0.00 0.00 0.00 53 1014.8
20260504192831 31 230 6.4 12.9 0.00 0.00 0.00 52 1015.0
20260504192329 31 262 4.8 11.3 0.00 0.00 0.00 53 1015.1
20260504191827 31 147 3.2 4.8 0.00 0.00 0.00 53 1015.0
20260504191324 31 141 3.2 4.8 0.00 0.00 0.00 52 1014.9
20260504190819 31 104 3.2 9.7 0.00 0.00 0.00 50 1014.9
20260504190316 31 181 8.0 11.3 0.00 0.00 0.00 50 1014.9
20260504185812 31 239 4.8 9.7 0.00 0.00 0.00 51 1015.1
20260504185310 31 278 6.4 20.9 0.00 0.00 0.00 50 1014.9
20260504184806 31 79 0.0 12.9 0.00 0.00 0.00 50 1015.0
20260504184301 32 63 6.4 11.3 0.00 0.00 0.00 46 1014.9
20260504183757 31 142 1.6 4.8 0.00 0.00 0.00 47 1014.9
20260504183254 31 67 3.2 9.7 0.00 0.00 0.00 49 1015.1
20260504182753 31 182 6.4 11.3 0.00 0.00 0.00 47 1015.0
20260504182249 31 290 3.2 3.2 0.00 0.00 0.00 48 1015.2
20260504181747 31 193 11.3 16.1 0.00 0.00 0.00 48 1015.2
20260504181244 31 179 12.9 20.9 0.00 0.00 0.00 46 1015.2
20260504180743 31 193 6.4 9.7 0.00 0.00 0.00 46 1015.5
20260504180241 31 142 8.0 14.5 0.00 0.00 0.00 45 1015.6
20260504175739 31 162 8.0 14.5 0.00 0.00 0.00 48 1015.6
20260504175235 31 151 12.9 16.1 0.00 0.00 0.00 46 1015.3
20260504174733 32 206 8.0 12.9 0.00 0.00 0.00 45 1015.8
20260504174231 32 130 6.4 11.3 0.00 0.00 0.00 45 1015.6
20260504173727 32 125 0.0 6.4 0.00 0.00 0.00 45 1015.8
20260504173224 32 128 6.4 11.3 0.00 0.00 0.00 45 1015.7
20260504172721 31 115 4.8 12.9 0.00 0.00 0.00 43 1015.9
20260504172217 32 216 3.2 11.3 0.00 0.00 0.00 41 1016.0
20260504171714 32 145 6.4 12.9 0.00 0.00 0.00 43 1015.9
20260504171211 31 194 8.0 11.3 0.00 0.00 0.00 44 1016.2
20260504170708 31 110 4.8 14.5 0.00 0.00 0.00 43 1016.1
20260504170205 31 189 14.5 17.7 0.00 0.00 0.00 42 1016.1
20260504160124 31 158 9.7 11.3 0.00 0.00 0.00 51 1016.6
20260504151051 30 69 1.6 11.3 0.00 0.00 0.00 56 1016.8
20260504150548 31 144 6.4 11.3 0.00 0.00 0.00 53 1016.7
20260504141014 30 127 1.6 6.4 0.00 0.00 0.00 56 1017.1
20260504140511 30 100 0.0 3.2 0.00 0.00 0.00 58 1017.2
20260504130435 27 136 3.2 3.2 0.00 0.00 0.00 69 1017.1
20260504110322 20 105 0.0 0.0 0.00 0.00 0.00 98 1017.2
20260504100240 19 107 0.0 1.6 0.00 0.00 0.00 97 1016.8